GPS BIII-3 (PRN 23)

Last updated on Sat Oct 25 2025 00:03:19 GMT+0000 (Coordinated Universal Time)

1 45854U 20041A 25296.39836279 -.00000080 00000+0 00000+0 0 9991 2 45854 56.5118 38.1464 0059145 201.3504 154.5626 2.00563261 39285
UTC large
Height (km)
Speed (km/s)
/
Latitude / Longitude
Inclination (degrees)
Orbital Period (minutes)
Azimuth
Elevation
Range (km)
Doppler Factor

Next 0 passes for location: London (51.5072 / 0.1276)

Sorry there are no passes over London.